Starlink 4129

operational
NORAD ID: 53251 Int'l Des: 2022-086 Owner: SPXS Country: US Constellation: starlink
LEOCIRCULAR

关于 Starlink 4129

正在加载描述...

实时位置

正在加载3D地球...

即将过境

高度历史

Altitude vs Time

uPlot chart will show altitude changes over time

两行轨道根数

1 53251U 22086K 25303.73925538 -.00000575 00000-0 -18043-4 0 9998
2 53251 53.2179 57.4896 0001324 94.5098 265.6045 15.08824399181444
Epoch: Oct 30, 2025 • Age: 18 hours

当前状态

高度 543.6 km
速度 7.60 km/s
星下点 44.73°N, 29.66°W
发射日期 Jul 24, 2022
运行时间 3.2 years
类型 internet

技术详情

分类 Payload
质量 297.00 kg
干质量 275.00 kg
总质量 297.00 kg
长度 0.20 m
直径 2.80 m
跨度 9.00 m
形状 Box + pan
制造商 SPXS
平台类型 Starlink
阶段状态 In Orbit
所有者/国家 SPXS/US

大型星座

Loading constellations...